| time (UTC) | temp F | wind direction | speed MPH | gust MPH | rain 1hr in | rain 24hr in | rain mn in | humidity % | barometer mb |
| 20260510224642 | 64 | 70 | 1.0 | 4.0 | 0.00 | 0.00 | 0.00 | 49 | 1019.4 |
| 20260510223203 | 64 | 326 | 1.0 | 5.0 | 0.00 | 0.00 | 0.00 | 49 | 1019.2 |
| 20260510222202 | 64 | 42 | 2.0 | 5.0 | 0.00 | 0.00 | 0.00 | 51 | 1019.3 |
| 20260510221203 | 64 | 319 | 2.0 | 6.0 | 0.00 | 0.00 | 0.00 | 50 | 1019.2 |
| 20260510220202 | 63 | 308 | 1.0 | 3.0 | 0.00 | 0.00 | 0.00 | 51 | 1019.3 |
| 20260510215639 | 63 | 292 | 0.0 | 3.0 | 0.00 | 0.00 | 0.00 | 55 | 1019.2 |
| 20260510214201 | 63 | 247 | 1.0 | 4.0 | 0.00 | 0.00 | 0.00 | 54 | 1018.9 |
| 20260510213158 | 63 | 291 | 1.0 | 3.0 | 0.00 | 0.00 | 0.00 | 52 | 1018.8 |
| 20260510212158 | 63 | 309 | 1.0 | 4.0 | 0.00 | 0.00 | 0.00 | 52 | 1018.5 |
| 20260510211158 | 64 | 37 | 2.0 | 5.0 | 0.00 | 0.00 | 0.00 | 49 | 1018.5 |
| 20260510210648 | 64 | 10 | 2.0 | 4.0 | 0.00 | 0.00 | 0.00 | 50 | 1018.5 |
| 20260510205158 | 64 | 291 | 2.0 | 4.0 | 0.00 | 0.00 | 0.00 | 50 | 1018.5 |
| 20260510204158 | 65 | 331 | 2.0 | 5.0 | 0.00 | 0.00 | 0.00 | 50 | 1018.5 |
| 20260510203158 | 65 | 24 | 3.0 | 8.0 | 0.00 | 0.00 | 0.00 | 48 | 1018.6 |
| 20260510202158 | 66 | 340 | 2.0 | 4.0 | 0.00 | 0.00 | 0.00 | 50 | 1018.4 |
| 20260510201158 | 66 | 96 | 2.0 | 6.0 | 0.00 | 0.00 | 0.00 | 49 | 1018.6 |
| 20260510200152 | 66 | 315 | 3.0 | 6.0 | 0.00 | 0.00 | 0.00 | 47 | 1018.6 |
| 20260510195633 | 67 | 88 | 3.0 | 9.0 | 0.00 | 0.00 | 0.00 | 49 | 1018.7 |
| 20260510194637 | 66 | 229 | 3.0 | 6.0 | 0.00 | 0.00 | 0.00 | 49 | 1018.8 |
| 20260510193632 | 66 | 311 | 2.0 | 4.0 | 0.00 | 0.00 | 0.00 | 48 | 1018.7 |
| 20260510192149 | 66 | 300 | 2.0 | 6.0 | 0.00 | 0.00 | 0.00 | 50 | 1018.9 |
| 20260510191629 | 66 | 305 | 2.0 | 6.0 | 0.00 | 0.00 | 0.00 | 54 | 1019.0 |
| 20260510190628 | 66 | 52 | 2.0 | 5.0 | 0.00 | 0.00 | 0.00 | 51 | 1018.8 |
| 20260510185626 | 66 | 346 | 2.0 | 4.0 | 0.00 | 0.00 | 0.00 | 50 | 1018.6 |
| 20260510184150 | 65 | 38 | 3.0 | 7.0 | 0.00 | 0.00 | 0.00 | 48 | 1018.7 |
| 20260510183146 | 65 | 316 | 2.0 | 8.0 | 0.00 | 0.00 | 0.00 | 52 | 1018.7 |
| 20260510182145 | 65 | 113 | 3.0 | 8.0 | 0.00 | 0.00 | 0.00 | 52 | 1018.5 |
| 20260510181624 | 66 | 35 | 2.0 | 7.0 | 0.00 | 0.00 | 0.00 | 51 | 1018.6 |
| 20260510180146 | 65 | 76 | 2.0 | 7.0 | 0.00 | 0.00 | 0.00 | 56 | 1018.7 |
| 20260510175633 | 65 | 321 | 2.0 | 6.0 | 0.00 | 0.00 | 0.00 | 53 | 1018.6 |
| 20260510174144 | 65 | 269 | 3.0 | 8.0 | 0.00 | 0.00 | 0.00 | 52 | 1018.3 |
| 20260510173143 | 65 | 271 | 3.0 | 6.0 | 0.00 | 0.00 | 0.00 | 50 | 1018.2 |
| 20260510172143 | 65 | 327 | 3.0 | 9.0 | 0.00 | 0.00 | 0.00 | 51 | 1018.2 |
| 20260510171143 | 65 | 346 | 3.0 | 5.0 | 0.00 | 0.00 | 0.00 | 49 | 1018.3 |
| 20260510170144 | 65 | 350 | 3.0 | 7.0 | 0.00 | 0.00 | 0.00 | 50 | 1018.2 |
| 20260510165624 | 65 | 272 | 2.0 | 7.0 | 0.00 | 0.00 | 0.00 | 50 | 1018.2 |
| 20260510164620 | 64 | 327 | 2.0 | 6.0 | 0.00 | 0.00 | 0.00 | 51 | 1018.4 |
| 20260510163144 | 64 | 72 | 2.0 | 7.0 | 0.00 | 0.00 | 0.00 | 52 | 1018.4 |
| 20260510162144 | 64 | 140 | 3.0 | 9.0 | 0.00 | 0.00 | 0.00 | 49 | 1018.4 |
| 20260510161145 | 64 | 65 | 2.0 | 8.0 | 0.00 | 0.00 | 0.00 | 48 | 1018.4 |
| 20260510160143 | 64 | 39 | 2.0 | 7.0 | 0.00 | 0.00 | 0.00 | 50 | 1018.4 |
| 20260510155143 | 64 | 74 | 2.0 | 9.0 | 0.00 | 0.00 | 0.00 | 52 | 1018.2 |
| 20260510154143 | 63 | 109 | 2.0 | 7.0 | 0.00 | 0.00 | 0.00 | 57 | 1018.2 |
| 20260510153143 | 63 | 42 | 2.0 | 6.0 | 0.00 | 0.00 | 0.00 | 54 | 1018.1 |
| 20260510152144 | 63 | 332 | 2.0 | 5.0 | 0.00 | 0.00 | 0.00 | 53 | 1017.9 |
| 20260510151143 | 62 | 71 | 2.0 | 7.0 | 0.00 | 0.00 | 0.00 | 53 | 1017.7 |
| 20260510150631 | 62 | 0 | 2.0 | 5.0 | 0.00 | 0.00 | 0.00 | 53 | 1017.8 |
| 20260510145144 | 62 | 338 | 2.0 | 6.0 | 0.00 | 0.00 | 0.00 | 56 | 1017.6 |
| 20260510144144 | 61 | 351 | 2.0 | 6.0 | 0.00 | 0.00 | 0.00 | 56 | 1017.5 |
| 20260510143143 | 62 | 299 | 2.0 | 5.0 | 0.00 | 0.00 | 0.00 | 56 | 1017.3 |
| 20260510142143 | 61 | 17 | 2.0 | 5.0 | 0.00 | 0.00 | 0.00 | 54 | 1017.0 |
| 20260510141143 | 60 | 84 | 2.0 | 8.0 | 0.00 | 0.00 | 0.00 | 58 | 1017.0 |
| 20260510140143 | 60 | 17 | 2.0 | 8.0 | 0.00 | 0.00 | 0.00 | 59 | 1016.6 |
| 20260510135143 | 59 | 117 | 2.0 | 6.0 | 0.00 | 0.00 | 0.00 | 61 | 1016.7 |
| 20260510134143 | 58 | 73 | 2.0 | 8.0 | 0.00 | 0.00 | 0.00 | 60 | 1016.7 |
| 20260510133137 | 58 | 355 | 2.0 | 5.0 | 0.00 | 0.00 | 0.00 | 66 | 1016.7 |
| 20260510132607 | 56 | 59 | 1.0 | 6.0 | 0.00 | 0.00 | 0.00 | 66 | 1016.6 |
| 20260510131137 | 56 | 100 | 2.0 | 7.0 | 0.00 | 0.00 | 0.00 | 65 | 1016.3 |
| 20260510130137 | 55 | 16 | 1.0 | 6.0 | 0.00 | 0.00 | 0.00 | 67 | 1016.3 |
| 20260510125136 | 55 | 109 | 1.0 | 5.0 | 0.00 | 0.00 | 0.00 | 67 | 1016.3 |
| 20260510124623 | 55 | 80 | 1.0 | 4.0 | 0.00 | 0.00 | 0.00 | 68 | 1016.2 |
| 20260510123137 | 54 | 338 | 1.0 | 5.0 | 0.00 | 0.00 | 0.00 | 68 | 1016.0 |
| 20260510122617 | 54 | 232 | 1.0 | 4.0 | 0.00 | 0.00 | 0.00 | 68 | 1015.7 |
| 20260510121621 | 54 | 9 | 1.0 | 5.0 | 0.00 | 0.00 | 0.00 | 68 | 1015.5 |
| 20260510120130 | 54 | 279 | 0.0 | 3.0 | 0.00 | 0.00 | 0.00 | 70 | 1015.5 |
| 20260510115129 | 54 | 65 | 1.0 | 3.0 | 0.00 | 0.01 | 0.00 | 70 | 1015.4 |
| 20260510114129 | 54 | 9 | 0.0 | 3.0 | 0.00 | 0.01 | 0.00 | 71 | 1015.4 |
| 20260510113128 | 54 | 28 | 0.0 | 2.0 | 0.00 | 0.01 | 0.00 | 73 | 1015.3 |
| 20260510112129 | 55 | 33 | 0.0 | 4.0 | 0.00 | 0.01 | 0.00 | 74 | 1014.9 |
| 20260510111129 | 55 | 347 | 0.0 | 2.0 | 0.00 | 0.01 | 0.00 | 75 | 1015.1 |
| 20260510110604 | 55 | 325 | 0.0 | 2.0 | 0.00 | 0.01 | 0.00 | 75 | 1014.7 |
| 20260510105130 | 55 | 99 | 0.0 | 3.0 | 0.00 | 0.01 | 0.00 | 74 | 1014.4 |
| 20260510104603 | 55 | 31 | 0.0 | 3.0 | 0.00 | 0.01 | 0.00 | 74 | 1014.5 |
| 20260510103129 | 55 | 333 | 1.0 | 4.0 | 0.00 | 0.01 | 0.00 | 73 | 1014.4 |
| 20260510102130 | 56 | 5 | 0.0 | 3.0 | 0.00 | 0.01 | 0.00 | 73 | 1013.8 |
| 20260510101129 | 56 | 317 | 1.0 | 4.0 | 0.00 | 0.01 | 0.00 | 73 | 1013.8 |
| 20260510100603 | 56 | 315 | 0.0 | 4.0 | 0.00 | 0.02 | 0.00 | 73 | 1013.9 |
| 20260510095129 | 56 | 5 | 0.0 | 5.0 | 0.00 | 0.02 | 0.00 | 73 | 1013.5 |
| 20260510094129 | 56 | 315 | 0.0 | 4.0 | 0.00 | 0.03 | 0.00 | 74 | 1013.5 |
| 20260510093129 | 57 | 15 | 0.0 | 2.0 | 0.00 | 0.04 | 0.00 | 73 | 1013.4 |
| 20260510092128 | 57 | 338 | 1.0 | 4.0 | 0.00 | 0.04 | 0.00 | 72 | 1013.3 |
| 20260510091129 | 57 | 335 | 0.0 | 3.0 | 0.00 | 0.04 | 0.00 | 72 | 1012.9 |
| 20260510090128 | 58 | 27 | 1.0 | 3.0 | 0.00 | 0.04 | 0.00 | 71 | 1012.7 |
| 20260510085609 | 58 | 315 | 1.0 | 5.0 | 0.00 | 0.04 | 0.00 | 71 | 1012.5 |
| 20260510084610 | 58 | 63 | 1.0 | 4.0 | 0.00 | 0.04 | 0.00 | 70 | 1012.2 |
| 20260510083612 | 58 | 344 | 1.0 | 4.0 | 0.00 | 0.04 | 0.00 | 70 | 1012.0 |
| 20260510082606 | 59 | 317 | 1.0 | 5.0 | 0.00 | 0.04 | 0.00 | 72 | 1011.8 |
| 20260510081130 | 59 | 327 | 2.0 | 5.0 | 0.00 | 0.04 | 0.00 | 74 | 1011.8 |
| 20260510080130 | 59 | 319 | 2.0 | 4.0 | 0.00 | 0.04 | 0.00 | 78 | 1011.7 |
| 20260510075130 | 58 | 339 | 1.0 | 3.0 | 0.00 | 0.05 | 0.00 | 80 | 1011.6 |
| 20260510074130 | 58 | 304 | 0.0 | 0.0 | 0.00 | 0.05 | 0.00 | 80 | 1011.7 |
| 20260510073129 | 59 | 304 | 1.0 | 2.0 | 0.00 | 0.05 | 0.00 | 79 | 1011.7 |
| 20260510071130 | 60 | 300 | 2.0 | 5.0 | 0.00 | 0.06 | 0.00 | 77 | 1011.8 |
| 20260510070128 | 60 | 289 | 1.0 | 4.0 | 0.00 | 0.07 | 0.00 | 76 | 1011.7 |
| 20260510065129 | 60 | 290 | 1.0 | 3.0 | 0.00 | 0.07 | 0.00 | 75 | 1011.6 |
| 20260510064604 | 61 | 336 | 2.0 | 4.0 | 0.00 | 0.08 | 0.00 | 74 | 1011.5 |
| 20260510063128 | 61 | 213 | 2.0 | 6.0 | 0.00 | 0.08 | 0.00 | 72 | 1011.6 |
| 20260510062130 | 61 | 298 | 2.0 | 4.0 | 0.00 | 0.09 | 0.00 | 70 | 1011.6 |
| 20260510060129 | 62 | 278 | 2.0 | 6.0 | 0.00 | 0.10 | 0.00 | 72 | 1011.4 |
| 20260510055129 | 62 | 196 | 4.0 | 9.0 | 0.00 | 0.11 | 0.00 | 74 | 1011.5 |
| 20260510054128 | 62 | 194 | 3.0 | 9.0 | 0.00 | 0.11 | 0.00 | 76 | 1011.7 |
| 20260510053129 | 63 | 246 | 4.0 | 11.0 | 0.00 | 0.11 | 0.00 | 76 | 1011.9 |
| 20260510052127 | 63 | 277 | 3.0 | 10.0 | 0.00 | 0.11 | 0.00 | 75 | 1011.8 |
| 20260510051126 | 62 | 308 | 1.0 | 5.0 | 0.00 | 0.11 | 0.00 | 74 | 1011.5 |
| 20260510050126 | 63 | 247 | 2.0 | 3.0 | 0.00 | 0.12 | 0.00 | 74 | 1011.3 |
| 20260510045611 | 63 | 296 | 1.0 | 4.0 | 0.00 | 0.12 | 0.00 | 73 | 1011.1 |
| 20260510044124 | 63 | 319 | 2.0 | 7.0 | 0.00 | 0.12 | 0.00 | 72 | 1010.9 |
| 20260510043124 | 64 | 58 | 2.0 | 7.0 | 0.00 | 0.13 | 0.00 | 72 | 1010.9 |
| 20260510042601 | 63 | 227 | 1.0 | 5.0 | 0.00 | 0.13 | 0.00 | 72 | 1010.7 |
| 20260510041555 | 63 | 188 | 2.0 | 5.0 | 0.00 | 0.13 | 0.00 | 72 | 1010.7 |
| 20260510040120 | 63 | 202 | 2.0 | 6.0 | 0.00 | 0.14 | 0.00 | 71 | 1010.7 |
| 20260510035119 | 64 | 229 | 2.0 | 5.0 | 0.00 | 0.14 | 0.14 | 71 | 1010.5 |
| 20260510034117 | 64 | 219 | 2.0 | 5.0 | 0.00 | 0.14 | 0.14 | 71 | 1010.5 |
| 20260510033116 | 64 | 204 | 2.0 | 6.0 | 0.00 | 0.14 | 0.14 | 70 | 1010.4 |
| 20260510032117 | 64 | 213 | 1.0 | 6.0 | 0.00 | 0.14 | 0.14 | 70 | 1010.4 |
| 20260510031117 | 64 | 286 | 1.0 | 3.0 | 0.00 | 0.14 | 0.14 | 70 | 1010.2 |
| 20260510030116 | 64 | 214 | 1.0 | 3.0 | 0.00 | 0.14 | 0.14 | 70 | 1010.2 |
| 20260510025117 | 64 | 208 | 2.0 | 5.0 | 0.00 | 0.14 | 0.14 | 69 | 1010.3 |
| 20260510024117 | 64 | 216 | 3.0 | 9.0 | 0.00 | 0.15 | 0.14 | 69 | 1010.3 |
| 20260510023113 | 65 | 193 | 2.0 | 5.0 | 0.00 | 0.15 | 0.14 | 69 | 1010.2 |
| 20260510022112 | 65 | 248 | 2.0 | 5.0 | 0.00 | 0.15 | 0.14 | 68 | 1010.1 |
| 20260510021113 | 65 | 215 | 2.0 | 7.0 | 0.00 | 0.15 | 0.14 | 68 | 1010.1 |
| 20260510020543 | 65 | 207 | 2.0 | 6.0 | 0.00 | 0.15 | 0.14 | 67 | 1009.9 |
| 20260510015110 | 66 | 213 | 3.0 | 8.0 | 0.00 | 0.15 | 0.14 | 66 | 1009.8 |
| 20260510014108 | 66 | 196 | 3.0 | 10.0 | 0.00 | 0.15 | 0.14 | 66 | 1009.7 |
| 20260510013109 | 66 | 291 | 2.0 | 8.0 | 0.00 | 0.15 | 0.14 | 66 | 1009.4 |
| 20260510012554 | 66 | 196 | 2.0 | 9.0 | 0.00 | 0.15 | 0.14 | 65 | 1009.3 |
| 20260510011108 | 67 | 188 | 2.0 | 7.0 | 0.00 | 0.15 | 0.14 | 65 | 1009.2 |
| 20260510010108 | 67 | 163 | 2.0 | 5.0 | 0.00 | 0.15 | 0.14 | 64 | 1008.9 |
| 20260510005108 | 67 | 175 | 1.0 | 5.0 | 0.00 | 0.15 | 0.14 | 64 | 1009.1 |
| 20260510004107 | 68 | 176 | 1.0 | 6.0 | 0.00 | 0.15 | 0.14 | 62 | 1008.9 |
| 20260510003106 | 69 | 213 | 2.0 | 7.0 | 0.00 | 0.15 | 0.14 | 62 | 1008.7 |
| 20260510002544 | 69 | 202 | 1.0 | 4.0 | 0.00 | 0.15 | 0.14 | 62 | 1008.6 |
| 20260510001102 | 69 | 209 | 3.0 | 9.0 | 0.00 | 0.15 | 0.14 | 60 | 1008.4 |
| 20260509235104 | 70 | 191 | 3.0 | 9.0 | 0.00 | 0.15 | 0.14 | 59 | 1008.1 |
| 20260509234102 | 71 | 200 | 3.0 | 9.0 | 0.00 | 0.15 | 0.14 | 57 | 1008.0 |
| 20260509233102 | 71 | 196 | 4.0 | 11.0 | 0.00 | 0.15 | 0.14 | 58 | 1008.2 |
| 20260509232101 | 71 | 215 | 4.0 | 12.0 | 0.00 | 0.15 | 0.14 | 57 | 1008.0 |
| 20260509231102 | 71 | 175 | 4.0 | 18.0 | 0.00 | 0.15 | 0.14 | 56 | 1008.1 |
| 20260509225543 | 72 | 163 | 6.0 | 14.0 | 0.00 | 0.15 | 0.14 | 57 | 1008.1 |